Location: ????????
(60.5616°N, 46.8254°E)
Time: 07:09:57
(UTC+00:00)

NOSS 3-2 (A) - Pass Details

Date: 18 February 2020
Orbit: 807 x 1401 km, 63.4° (Epoch: 25 February)

Event Time Altitude Azimuth Distance (km) Brightness Sun altitude
Rises 16:34:22 0° 288° (WNW) 3,704 8.1 -20.8°
Reaches altitude 10° 16:36:49 10° 290° (WNW) 2,831 7.1 -21.1°
Maximum altitude 16:43:36 79° 17° (NNE) 1,171 3.8 -21.9°
Enters shadow 16:46:48 39° 99° (E) 1,738 4.3 -22.3°
